DELTA 1 DEB, 20051

Orbit data source: Space-Track

DELTA 1 DEB, 20051 is space debris in SSO originally from a launch on Thu, 29 Jul 1976 UTC launched from the Air Force Western Test Range (AFWTR). Debris objects in space refer to the collection of defunct objects orbiting the Earth. Examples of debris include non-operational satellites, rocket bodies, and fragments generated from explosions, collisions, or faulty payload assembly.

Loading next visibility...
Identifier
20051, 1976-077FN
Orbit
SSO
Country
Flag of USUS
Related business
Manufacturer
Unknown
Mission
Spacecraft
Bus & Motor
Unknown
Mass
Unknown
Launch date (UTC)
1976-07-29 (50 years ago)
Launch vehicle
Unknown
Launch site
Air Force Western Test Range (AFWTR)
Object type
Payload
Rocket body
Debris
Shape & HBR
Unknown shape, 0.1 m
Radar Cross Section
Medium (>0.1 m² and <1 m²)

Expand to show TLE details & history
Last TLE update: 3 months ago

TLE from 3 months ago
0 DELTA 1 DEB
1 20051U 76077FN  26152.37280782 -.00000008  00000-0  35113-3 0  9993
2 20051 102.5492 107.4693 0154957  58.9010  91.5359 12.14755417615930
Epoch: 2026-06-01T08:56Z
TLE epoch observation values (Epoch: 2026-06-01T08:56:50.595Z)
Latitude
27.10776°
Longitude
-90.09143°
Altitude
1,623.652 km
Speed
7.059 km/s
True Right ascension
19h 35m 55s
True Declination
26° 59' 01"
Sunlit
Object was in daylight at epoch
Visualization orbit readout
Latitude
Unknown
Longitude
Unknown
Altitude
Unknown
Speed
Unknown
Apparent Right ascension
Unknown
Apparent Declination
Unknown
Sunlit
N/A
Visualization observer readout
Local Sidereal Time
05:20:19
Azimuth
Unknown
Elevation
Unknown
Doppler factor
Unknown
Orbital elements
Apogee altitude
1,736.937 km
Perigee altitude
1,489.277 km
Semi-major axis
7,991.244 km
Eccentricity
0.0155
Inclination
102.5492°
RAAN
107.4693°
Arg. of periapsis
58.901°
True anomaly
93.30973°
Mean anomaly
91.5359°
Eccentric anomaly
92.42294°
Mean motion
3.03824 °/min
Orbital period
118.49 mins
BSTAR
0.00035113
Loading maneuver chart data...
Computing Atmospheric mass density...
Loading historical data...
Loading historical data...
Loading historical data...
Loading historical data...
Loading historical data...
Loading historical data...
Loading historical data...

Documentation

Showing up to 5 results
|